Home   Weather   Astrakhan   Past weeks

Flag for Russia Past Weather in Astrakhan, Russia — Yesterday and Last 2 Weeks

34 °F


Feels Like: 25 °F
Forecast: 28 / 41 °F
Wind: 13 mph from East

Location: Astrakhan

Current Time: Oct 24, 2016 at 7:34:22 AM

Latest Report: Oct 24, 2016 at 7:00 AM

Visibility: 10 mi

Pressure: 30.69 "Hg

Humidity: 75%

Dew Point: 27 °F

Location of AstrakhanLocation

Past Weather in Astrakhan — Graph


Astrakhan Temperature Yesterday

Maximum temperature yesterday: 52 °F (at 1:00 PM)
Minimum temperature yesterday: 32 °F (at 4:00 AM)
Average temperature yesterday: 41 °F

High & Low Weather Summary for the Past Weeks

High79 °F (Oct 9, 3:00 PM)94% (Oct 9, 11:30 PM)30.66 "Hg (Oct 9, 11:30 PM)
Low25 °F (Oct 19, 7:30 AM)26% (Oct 12, 4:00 PM)29.95 "Hg (Oct 15, 2:30 AM)
Average45 °F64%30.32 "Hg
* Reported Oct 9 6:00 AM — Oct 24 6:00 AM, Astrakhan, Weather by CustomWeather, © 2016

Note: Actual official high and low records may vary slightly from our data, if they occured in-between our weather recording intervals... More about our weather records


Astrakhan Weather History for the Previous 24 Hours

Scroll right to see more
Time TempWeatherWind HumidityBarometerVisibility
6:00 AM
Mon, Oct 24
36 °FClear.15 mph70%30.66 "Hg10 mi
5:30 AM36 °FClear.15 mph70%30.66 "Hg10 mi
5:00 AM36 °FClear.15 mph70%30.63 "Hg10 mi
4:30 AM37 °FClear.13 mph70%30.63 "Hg10 mi
4:00 AM37 °FClear.15 mph70%30.63 "Hg10 mi
3:30 AM39 °FClear.13 mph70%30.63 "Hg10 mi
3:00 AM41 °FClear.13 mph66%30.63 "Hg10 mi
2:30 AM41 °FClear.13 mph66%30.60 "Hg10 mi
2:00 AM41 °FClear.13 mph66%30.60 "Hg10 mi
1:30 AM39 °FClear.10 mph70%30.60 "Hg10 mi
1:00 AM39 °FClear.10 mph70%30.60 "Hg10 mi
12:30 AM39 °FClear.10 mph70%30.60 "Hg10 mi
12:00 AM39 °FClear.10 mph70%30.60 "Hg10 mi
11:00 PM
Sun, Oct 23
39 °FClear.10 mph70%30.60 "Hg10 mi
10:00 PM41 °FClear.13 mph66%30.60 "Hg10 mi
9:30 PM41 °FClear.10 mph66%30.60 "Hg10 mi
9:00 PM41 °FClear.10 mph70%30.60 "Hg10 mi
8:30 PM41 °FClear.10 mph70%30.60 "Hg10 mi
8:00 PM43 °FClear.10 mph66%30.57 "Hg10 mi
7:30 PM43 °FClear.13 mph66%30.57 "Hg10 mi
7:00 PM45 °FPassing clouds.10 mph61%30.57 "HgN/A
6:30 PM46 °FPartly sunny.13 mph57%30.57 "HgN/A
6:00 PM46 °FPartly sunny.17 mph57%30.57 "HgN/A
5:30 PM48 °FPartly sunny.17 mph46%30.54 "HgN/A
5:00 PM48 °FPartly sunny.15 mph43%30.54 "HgN/A
4:30 PM50 °FPartly sunny.17 mph35%30.54 "HgN/A
4:00 PM50 °FPartly sunny.20 mph35%30.54 "HgN/A
3:30 PM52 °FPartly sunny.15 mph32%30.54 "HgN/A
3:00 PM52 °FPartly sunny.17 mph32%30.54 "HgN/A
2:30 PM52 °FPartly sunny.17 mph35%30.51 "HgN/A
2:00 PM52 °FPartly sunny.20 mph38%30.51 "HgN/A
1:30 PM52 °FSunny.17 mph38%30.51 "Hg10 mi
1:00 PM52 °FSunny.17 mph41%30.51 "Hg10 mi
12:00 PM48 °FPassing clouds.15 mph58%30.54 "HgN/A
11:30 AM46 °FPassing clouds.13 mph62%30.54 "HgN/A
11:00 AM43 °FSunny.13 mph61%30.54 "Hg10 mi
10:30 AM41 °FSunny.8 mph61%30.54 "Hg10 mi
10:00 AM37 °FSunny.10 mph65%30.54 "Hg10 mi
9:30 AM37 °FSunny.10 mph65%30.54 "Hg10 mi
9:00 AM36 °FSunny.10 mph70%30.54 "Hg10 mi
8:00 AM34 °FClear.10 mph70%30.54 "Hg10 mi
7:30 AM34 °FClear.10 mph75%30.54 "Hg10 mi
7:00 AM36 °FClear.10 mph70%30.54 "Hg10 mi
Weather by CustomWeather, © 2016

See weather overviewHow to use our weather pages